Tracking 18984 objects as of 24-Feb-2018
HD Live streaming from Space Station
objects crossing your sky now

AGGIESAT 4

Track AGGIESAT 4 now!
10-day predictions
AGGIESAT 4 is classified as:


NORAD ID: 41313
Int'l Code: 1998-067HP
Perigee: 250.4 km
Apogee: 259.3 km
Inclination: 51.6 °
Period: 89.5 minutes
Semi major axis: 6625 km
RCS: Unknown
Launch date: November 20, 1998
Source: United States (US)
Launch site: TYURATAM MISSILE AND SPACE COMPLEX (TTMTR)
aabbcc
Your satellite tracking list
Your tracking list is empty




NASA's NSSDC Master Catalog

Two Line Element Set (TLE):
1 41313U 98067HP  18054.46872640 +.00344570 +69366-4 +36395-3 0  9993
2 41313 051.6280 130.4792 0006692 011.4082 348.7082 16.09676398118794
Source of the keplerian elements: Caltech